Flag for India Weather past 2 weeks in Yavatmal, Maharashtra, India

Now
63 °F

Light rain. Mostly cloudy.


Feels Like: 63 °F
Forecast: 66 / 77 °F
Wind: No wind

Location: Nagpur Sonegaon

Current Time: Mar 1, 2015 at 8:50:56 PM

Latest Report: Mar 1, 2015 at 7:40 PM


Visibility: 1 mi

Pressure: 29.92 "Hg

Humidity: 94%

Dew point: 61 °F

Location of YavatmalLocation

Historic Weather in Yavatmal — Graph

°F

Yavatmal temperature yesterday

Maximum temperature yesterday: 95 °F (at 1:40 PM)
Minimum temperature yesterday: 64 °F (at 11:40 PM)
Average temperature yesterday: 74 °F

Past Weeks' High & Low Weather Summary

 TemperatureHumidityPressure
High99 °F (Feb 25, 3:40 PM)100% (Feb 18, 10:40 PM)30.07 "Hg (Feb 18, 10:40 PM)
Low55 °F (Feb 17, 6:40 AM)14% (Feb 17, 3:40 PM)29.74 "Hg (Feb 26, 2:40 PM)
Average78 °F49%29.91 "Hg
* Reported Feb 14 6:40 PM — Mar 1 6:40 PM, Yavatmal, Weather by CustomWeather, © 2015

Note: Actual official high and low records may vary slightly from our data, if they occured in-between our weather recording intervals... More about our weather records

Advertising

Yavatmal weather history for previous 24 hours

 ConditionsComfort  
Time TempWeatherWind HumidityBarometerVisibility
6:40 PM
Sun, Mar 1
63 °FRain. Cloudy.5 mph94%29.92 "Hg1 mi
5:40 PM63 °FLight rain. More clouds than sun.5 mph94%29.89 "Hg1 mi
4:40 PM66 °FRain. Broken clouds.3 mph88%29.89 "Hg1 mi
3:40 PM66 °FRain. More clouds than sun.No wind88%29.86 "Hg1 mi
2:40 PM66 °FLight rain. More clouds than sun.2 mph78%29.89 "Hg1 mi
1:40 PM70 °FLight rain. More clouds than sun.5 mph78%29.92 "Hg2 mi
12:40 PM68 °FMore clouds than sun.5 mph78%29.95 "Hg2 mi
11:40 AM68 °FMore clouds than sun.5 mph83%29.95 "Hg2 mi
10:40 AM66 °FLight rain. More clouds than sun.6 mph83%29.98 "Hg1 mi
9:40 AM64 °FLight rain. Scattered clouds.5 mph88%29.98 "Hg1 mi
8:40 AM64 °FLight rain. Scattered clouds.No wind94%29.98 "Hg1 mi
7:40 AM63 °FLight rain. Scattered clouds.No wind94%29.98 "Hg1 mi
4:40 AM63 °FLight rain. Partly cloudy.2 mph94%29.89 "Hg1 mi
1:40 AM63 °FLight rain. Partly cloudy.7 mph94%29.89 "Hg1 mi
11:40 PM
Sat, Feb 28
64 °FLight rain. Passing clouds.12 mph88%29.92 "Hg1 mi
10:40 PM66 °FLight rain. Passing clouds.9 mph83%29.92 "Hg2 mi
9:40 PM66 °FLight rain. Passing clouds.15 mph83%29.92 "Hg2 mi
8:40 PM68 °FLight rain. Passing clouds.12 mph83%29.89 "Hg2 mi
Weather by CustomWeather, © 2015

See weather overviewHow to use our weather pages